TEVEL-5 (50998 NORAD) Tracking and Keplerian Element Data

This shows tracking and keplerian element data for the satellite.

Feedback or suggestion? Click here.




ElementValue
Catalog50998
NameTEVEL-5
Epoch Orbit13374
Epoch Day160.21087645
Epoch Year2024
RAAN237.0339
Inclination97.3756
Eccentricity0.0003479
Argument of Perigee244.9132
Mean Anonmoly115.1771
Mean Motion15.72120299
Decay Rate0.00289025
L11 50998U 22002Q 24160.21087645 .00289025 00000+0 21349-2 0 9999
L22 50998 97.3756 237.0339 0003479 244.9132 115.1771 15.72120299133744



Live tracking and technical data element details for TEVEL-5 (NORAD 50998). TEVEL-5 can be tracked NOW for your location showing map with azimuth and elevation plus other details from your city location.







IsCatalogInMostPopularTable: catalog: 50998, numindb: 74
Update: records affected: 1



GetName: 50998 TEVEL-5

Hit Count: updated at: Fri, 24 Jan 2025 23:28:44 GMT